Regional Weather Roundup
Issued by NWS

Home | Current Version | Previous Version | Text Only | Print | Product List | Glossary On
Versions: 1 2 3 4 5 6 7 8 9 10 11 12 13 14 15 16 17 18 19 20 21 22 23 24 25 26 27 28 29 30 31 32 33 34 35 36 37 38 39 40 41 42 43 44 45 46 47 48 49 50
000
ASUS46 KSEW 202310
RWRWA

WASHINGTON REGIONAL WEATHER ROUNDUP
NATIONAL WEATHER SERVICE SEATTLE WA
300 PM PST SAT DEC 20 2014

NOTE:"FAIR" INDICATES FEW OR NO CLOUDS BELOW 12,000 FEET WITH NO
SIGNIFICANT WEATHER AND/OR OBSTRUCTIONS TO VISIBILITY.

WAZ505-507>509-210000-
SEATTLE, TACOMA, EVERETT, AND VICINITY

CITY           SKY/WX    TMP DP  RH WIND       PRES   REMARKS
EVERETT        CLOUDY    47  44  90 SE8       29.49F FOG
BOEING FIELD   LGT RAIN  51  46  83 SE9       29.49F
RENTON         LGT RAIN  49  47  93 SE3       29.49F FOG
SEATAC AIRPORT LGT RAIN  49  46  90 SE10      29.50F
JBLM-MCCHORD   LGT RAIN  50  50 100 S5        29.50S
PUYALLUP       NOT AVBL
JBLM-FT LEWIS  DRIZZLE   51  50  99 S3        29.49F
TACOMA NARROWS CLOUDY    49  47  93 S7        29.50F
$$

WAZ001-503-506-510-514-515-210000-
NORTH INTERIOR

CITY           SKY/WX    TMP DP  RH WIND       PRES   REMARKS
BELLINGHAM     LGT RAIN  50  45  81 SE20G25   29.41F
FRIDAY HARBOR  LGT RAIN  48  46  93 SE20G26   29.42F
EASTSOUND      LGT RAIN  48  46  93 S12G26    29.38F
PORT ANGELES   LGT RAIN  47  44  90 E3        29.38F
NAS WHIDBEY    CLOUDY    51  45  79 SE25G36   29.44F
BURLINGTON     CLOUDY    48  46  93 E9        29.48F
$$

WAZ020-022-039-040-504-511-512-210000-
SOUTHWEST INTERIOR

CITY           SKY/WX    TMP DP  RH WIND       PRES   REMARKS
SHELTON        LGT RAIN  45  44  97 CALM      29.46F FOG
OLYMPIA        LGT RAIN  50  48  93 S15       29.50F FOG
CHEHALIS       LGT RAIN  52  50  93 S15G22    29.53S
KELSO          CLOUDY    52  46  82 SE16G24   29.61S
VANCOUVER      LGT RAIN  53  50  89 VRB7      29.63F
SCAPPOOSE, OR  LGT RAIN  52  50  93 S7        29.61R
PORTLAND, OR   LGT RAIN  53  51  93 S12G21    29.63F
$$

WAZ021-516-517-210000-
WASHINGTON COAST

CITY           SKY/WX    TMP DP  RH WIND       PRES   REMARKS
FORKS          LGT RAIN  54  54 100 SW15G30   29.37F VSB 1
HOQUIAM        RAIN      54  54 100 S26G35    29.47S FOG
ASTORIA, OR    LGT RAIN  56  54  93 SW21G35   29.55R
$$

WAZ019-023-024-040-518-519-210000-
CASCADE MOUNTAINS AND COLUMBIA GORGE

CITY           SKY/WX    TMP DP  RH WIND       PRES   REMARKS
STAMPEDE PASS  NOT AVBL
TROUTDALE, OR  LGT RAIN  46  44  93 E6        29.63F
THE DALLES, OR LGT RAIN  43  41  93 N3        29.69F
$$

WAZ026-027-041>044-520-521-210000-
EAST SLOPES

CITY           SKY/WX    TMP DP  RH WIND       PRES   REMARKS
OMAK           LGT RAIN  35  34  96 CALM      29.66F FOG
WENATCHEE      MIX PCPN  36  33  89 W5        29.66F
ELLENSBURG     CLOUDY    42  38  85 CALM      29.62F
YAKIMA         LGT RAIN  44  40  85 CALM      29.65S
$$

WAZ028-034-035-210000-
COLUMBIA BASIN

CITY           SKY/WX    TMP DP  RH WIND       PRES   REMARKS
EPHRATA        LGT RAIN  42  40  92 N3        29.65F
MOSES LAKE     LGT RAIN  44  42  93 CALM      29.66F
PASCO          LGT RAIN  49  46  90 SE8       29.69F
HERMISTON, OR  LGT RAIN  45  43  93 N6        29.68F FOG
$$

WAZ036>038-210000-
NORTHEAST WASHINGTON

CITY           SKY/WX    TMP DP  RH WIND       PRES   REMARKS
SPOKANE GEIGER LGT RAIN  40  39  97 S8        29.69F FOG
SPOKANE FELTS  CLOUDY    43  39  86 SE7       29.71F FOG
FAIRCHILD AFB  LGT RAIN  39  39 100 SE8       29.68F FOG
COEURDALENE,ID CLOUDY    39  37  93 CALM      29.71F
DEER PARK      LGT RAIN  39  39 100 E3        29.71F FOG
$$

WAZ029>033-210000-
SOUTHEAST WASHINGTON

CITY           SKY/WX    TMP DP  RH WIND       PRES   REMARKS
PULLMAN        LGT RAIN  41  37  86 SE15      29.75F
LEWISTON, ID   LGT RAIN  44  39  82 E8        29.76F
WALLA WALLA    RAIN      50  42  74 S16       29.70F
PENDLETON, OR  LGT RAIN  47  41  80 SW5       29.71F
$$



USA.gov is the U.S. government's official web portal to all federal, state and local government web resources and services.